Date String (YYYY-MM-DD hh:mm:ss) UTC,Instrument flags,Ambient pressure (hPa),Sample flow (lpm),Bypass flow (lpm),Sample temperature (°C),Ambient temperature (°C),ASC tube jacket temperature (°C),LED temperature (°C),Box temperature (°C),Sample RH (%),Span deviation,Mass concentration (μg/m³),Mass concentration (μg/m³),Mass concentration (μg/m³)
DateTimeUTC,F1_M11,P_M11,Q1_M11,Q2_M11,T1_M11,T2_M11,T3_M11,T4_M11,T5_M11,U1_M11,ZSPAN_M11,X0_M11,X2_M11,X1_M11
2022-07-26 12:00:00,,0826.5,5.00,0.00,30.1,28.4,00.0,38.7,32.0,20.3,0000.0,0012.34,0007.05,0006.44
2022-07-26 12:01:00,,0826.5,5.01,0.00,30.1,27.7,00.0,38.7,31.8,20.3,0000.0,0012.42,0007.07,0006.46
2022-07-26 12:02:00,,0826.5,5.01,0.00,30.0,27.5,00.0,38.7,31.7,20.3,0000.0,0012.26,0007.08,0006.46
2022-07-26 12:03:00,,0826.5,4.99,0.00,29.9,27.5,00.0,38.7,31.6,20.4,0000.0,0012.38,0007.13,0006.48
2022-07-26 12:04:00,,0826.5,5.01,0.00,29.8,27.6,00.0,38.6,31.5,20.4,0000.0,0012.42,0007.18,0006.49
2022-07-26 12:05:00,,0826.5,4.99,0.00,29.8,27.7,00.0,38.6,31.5,20.3,0000.0,0013.43,0007.20,0006.48
2022-07-26 12:06:00,,0826.5,5.00,0.00,29.8,27.9,00.0,38.6,31.5,20.3,0000.0,0014.09,0007.21,0006.48
2022-07-26 12:07:00,,0826.5,5.00,0.00,29.8,28.0,00.0,38.6,31.6,20.3,0000.0,0014.20,0007.21,0006.49
2022-07-26 12:08:00,,0826.6,5.00,0.00,29.8,28.1,00.0,38.6,31.6,20.2,0000.0,0013.74,0007.22,0006.49
2022-07-26 12:09:00,,0826.6,5.01,0.00,29.8,28.2,00.0,38.6,31.6,20.1,0000.0,0013.32,0007.24,0006.50
2022-07-26 12:10:00,,0826.6,5.01,0.00,29.8,28.3,00.0,38.6,31.6,20.0,0000.0,0013.64,0007.23,0006.50
2022-07-26 12:11:00,,0826.5,4.99,0.00,29.8,28.4,00.0,38.6,31.7,20.0,0000.0,0013.72,0007.22,0006.50
2022-07-26 12:12:00,,0826.5,5.00,0.00,29.8,28.5,00.0,38.6,31.7,19.9,0000.0,0013.59,0007.26,0006.49
2022-07-26 12:13:00,,0826.5,5.01,0.00,29.8,28.5,00.0,38.6,31.7,19.8,0000.0,0014.06,0007.29,0006.49
2022-07-26 12:14:00,,0826.6,5.00,0.00,29.9,28.6,00.0,38.6,31.7,19.7,0000.0,0014.65,0007.27,0006.49
2022-07-26 12:15:00,,0826.6,5.00,0.00,29.9,28.7,00.0,38.6,31.7,19.7,0000.0,0014.84,0007.25,0006.48
2022-07-26 12:16:00,,0826.7,5.00,0.00,29.9,28.7,00.0,38.6,31.8,19.7,0000.0,0014.43,0007.30,0006.49
2022-07-26 12:17:00,,0826.7,5.00,0.00,29.9,28.8,00.0,38.6,31.8,19.6,0000.0,0013.69,0007.31,0006.50
2022-07-26 12:18:00,,0826.7,4.99,0.00,29.9,28.8,00.0,38.7,31.8,19.5,0000.0,0013.37,0007.31,0006.51
2022-07-26 12:19:00,,0826.7,5.01,0.00,30.0,28.8,00.0,38.7,31.9,19.4,0000.0,0013.49,0007.34,0006.51
2022-07-26 12:20:00,,0826.7,4.98,0.00,30.0,28.9,00.0,38.7,31.9,19.4,0000.0,0013.47,0007.33,0006.50
2022-07-26 12:21:00,,0826.8,5.01,0.00,30.0,28.9,00.0,38.7,31.9,19.4,0000.0,0013.11,0007.33,0006.49
2022-07-26 12:22:00,,0826.8,5.01,0.00,30.0,29.0,00.0,38.7,31.9,19.8,0000.0,0012.70,0007.32,0006.49
2022-07-26 12:23:00,,0826.8,4.99,0.00,30.1,29.0,00.0,38.7,32.0,20.5,0000.9,0012.75,0007.32,0006.51
2022-07-26 12:24:00,,0827.0,5.01,0.00,30.1,29.0,00.0,38.8,32.0,20.3,0000.0,0012.92,0007.33,0006.51
2022-07-26 12:25:00,,0826.9,5.01,0.00,30.1,29.0,00.0,38.8,32.0,19.9,0000.0,0012.98,0007.32,0006.50
2022-07-26 12:26:00,,0827.0,4.99,0.00,30.1,29.1,00.0,38.8,32.0,19.6,0000.0,0012.72,0007.31,0006.50
2022-07-26 12:27:00,,0827.0,5.00,0.00,30.1,29.0,00.0,38.8,32.0,19.5,0000.0,0012.24,0007.24,0006.49
2022-07-26 12:28:00,,0827.1,5.01,0.00,30.1,28.2,00.0,38.7,31.9,19.4,0000.0,0012.21,0007.22,0006.48
2022-07-26 12:29:00,,0827.2,5.00,0.00,30.0,27.7,00.0,38.7,31.8,19.4,0000.0,0012.17,0007.22,0006.48
2022-07-26 12:30:00,,0827.3,5.00,0.00,30.0,27.6,00.0,38.7,31.7,19.6,0000.0,0012.17,0007.22,0006.48
2022-07-26 12:31:00,,0827.0,5.02,0.00,29.9,27.7,00.0,38.7,31.6,19.7,0000.0,0012.20,0007.23,0006.49
2022-07-26 12:32:00,,0826.9,5.00,0.00,29.9,27.8,00.0,38.7,31.6,19.7,0000.0,0012.28,0007.23,0006.47
2022-07-26 12:33:00,,0826.9,4.99,0.00,29.9,27.9,00.0,38.7,31.6,19.7,0000.0,0012.35,0007.25,0006.47
2022-07-26 12:34:00,,0826.9,5.00,0.00,29.8,28.0,00.0,38.6,31.6,19.6,0000.0,0012.17,0007.21,0006.45
2022-07-26 12:35:00,,0826.9,5.00,0.00,29.8,28.1,00.0,38.6,31.6,19.8,0000.0,0011.75,0007.19,0006.45
2022-07-26 12:36:00,,0826.9,4.99,0.00,29.9,28.3,00.0,38.6,31.7,19.8,0000.0,0011.06,0007.21,0006.47
2022-07-26 12:37:00,,0827.0,5.00,0.00,29.9,28.4,00.0,38.6,31.7,19.6,0000.0,0011.00,0007.20,0006.48
2022-07-26 12:38:00,,0827.2,5.01,0.00,29.9,28.5,00.0,38.6,31.7,19.4,0000.0,0011.21,0007.22,0006.49
2022-07-26 12:39:00,,0826.9,4.99,0.00,29.9,28.5,00.0,38.6,31.7,19.4,0000.0,0011.07,0007.19,0006.50
2022-07-26 12:40:00,,0827.0,5.01,0.00,29.9,28.6,00.0,38.7,31.7,19.4,0000.0,0011.35,0007.18,0006.50
2022-07-26 12:41:00,,0827.0,4.99,0.00,29.9,28.7,00.0,38.7,31.8,19.4,0000.0,0011.29,0007.16,0006.51
2022-07-26 12:42:00,,0827.0,5.01,0.00,29.9,28.7,00.0,38.7,31.8,19.4,0000.0,0011.14,0007.14,0006.53
2022-07-26 12:43:00,,0827.1,5.00,0.00,30.0,28.8,00.0,38.7,31.9,19.5,0000.0,0011.52,0007.17,0006.56
2022-07-26 12:44:00,,0827.2,5.01,0.00,30.0,28.8,00.0,38.7,31.9,20.2,0000.0,0011.98,0007.17,0006.57
2022-07-26 12:45:00,,0827.1,5.01,0.00,30.0,28.9,00.0,38.7,31.9,20.3,0000.0,0012.19,0007.18,0006.59
2022-07-26 12:46:00,,0827.3,5.00,0.00,30.0,28.9,00.0,38.7,31.9,20.0,0000.0,0012.52,0007.17,0006.60
2022-07-26 12:47:00,,0827.2,5.01,0.00,30.1,29.0,00.0,38.7,32.0,20.0,0000.0,0012.36,0007.13,0006.59
2022-07-26 12:48:00,,0827.1,5.00,0.00,30.1,29.0,00.0,38.8,32.0,19.8,0000.0,0012.33,0007.13,0006.60
2022-07-26 12:49:00,,0827.1,5.00,0.00,30.1,29.0,00.0,38.8,32.0,20.2,0000.0,0012.27,0007.18,0006.60
2022-07-26 12:50:00,,0827.2,4.99,0.00,30.1,29.1,00.0,38.8,32.0,20.2,0000.9,0013.21,0007.23,0006.59
2022-07-26 12:51:00,,0827.2,4.99,0.00,30.1,29.1,00.0,38.8,32.0,20.2,0002.8,0012.92,0007.24,0006.60
2022-07-26 12:52:00,,0827.2,5.01,0.00,30.2,29.1,00.0,38.8,32.1,20.3,0002.7,0013.01,0007.27,0006.58
2022-07-26 12:53:00,,0827.1,5.00,0.00,30.2,28.4,00.0,38.8,32.0,20.0,0002.4,0013.18,0007.27,0006.58
2022-07-26 12:54:00,,0827.2,5.00,0.00,30.1,27.6,00.0,38.7,31.8,20.0,0002.3,0012.79,0007.23,0006.56
2022-07-26 12:55:00,,0827.2,5.00,0.00,30.0,27.4,00.0,38.7,31.7,20.2,0002.2,0012.35,0007.22,0006.54
2022-07-26 12:56:00,,0827.2,5.00,0.00,29.9,27.4,00.0,38.7,31.6,20.3,0002.0,0011.97,0007.23,0006.53
2022-07-26 12:57:00,,0827.2,4.99,0.00,29.9,27.5,00.0,38.7,31.5,20.0,0002.2,0011.58,0007.21,0006.52
2022-07-26 12:58:00,,0827.2,5.00,0.00,29.8,27.7,00.0,38.7,31.5,20.2,0000.2,0011.85,0007.24,0006.51
2022-07-26 12:59:00,,0827.2,4.99,0.00,29.8,27.8,00.0,38.6,31.5,20.7,0000.0,0012.17,0007.23,0006.49
